AXM6047 WMKJ-WMKK

Flight info

Callsign AXM6047
Flight time 0h 31m
Altitude 24000
Route MASBO A457 GUPTA GUPTA1J
Aircraft A320/M-SDE3FGHIRWY/LB1

Departure

Time 2026-04-24 15:44
Airport Senai International Airport (WMKJ)

Arrival

Time 2026-04-24 16:15
Airport Kuala Lumpur International Airport (WMKK)
Time Latitude Longitude Altitude Speed Heading
2026-04-24 15:20 1.63608 103.66738 200 ft 0 kts 249°
2026-04-24 15:35 1.63626 103.66785 204 ft 4 kts 257°
2026-04-24 15:35 1.63634 103.66828 210 ft 1 kts 262°
2026-04-24 15:35 1.63634 103.66830 210 ft 0 kts 262°
2026-04-24 15:37 1.63646 103.66808 206 ft 9 kts 334°
2026-04-24 15:37 1.63680 103.66855 211 ft 10 kts 75°
2026-04-24 15:38 1.63732 103.66873 200 ft 10 kts 352°
2026-04-24 15:38 1.63798 103.66853 205 ft 10 kts 341°
2026-04-24 15:38 1.63873 103.66827 209 ft 13 kts 340°
2026-04-24 15:38 1.63966 103.66792 200 ft 15 kts 340°
2026-04-24 15:39 1.64063 103.66759 205 ft 15 kts 342°
2026-04-24 15:39 1.64155 103.66726 209 ft 13 kts 337°
2026-04-24 15:39 1.64234 103.66707 200 ft 11 kts
2026-04-24 15:39 1.64272 103.66747 200 ft 7 kts 71°
2026-04-24 15:40 1.64287 103.66790 204 ft 6 kts 71°
2026-04-24 15:40 1.64304 103.66832 207 ft 7 kts 59°
2026-04-24 15:40 1.64382 103.66824 209 ft 19 kts 339°
2026-04-24 15:40 1.64533 103.66768 211 ft 27 kts 340°
2026-04-24 15:41 1.64721 103.66700 212 ft 29 kts 340°
2026-04-24 15:41 1.64892 103.66639 204 ft 27 kts 341°
2026-04-24 15:41 1.65070 103.66573 213 ft 28 kts 339°
2026-04-24 15:41 1.65257 103.66505 211 ft 30 kts 340°
2026-04-24 15:42 1.65437 103.66437 209 ft 18 kts 333°
2026-04-24 15:42 1.65514 103.66386 208 ft 9 kts 355°
2026-04-24 15:42 1.65516 103.66403 209 ft 2 kts 126°
2026-04-24 15:42 1.65507 103.66411 208 ft 2 kts 140°
2026-04-24 15:43 1.65497 103.66416 202 ft 0 kts 156°
2026-04-24 15:43 1.65489 103.66422 208 ft 15 kts 140°
2026-04-24 15:43 1.65110 103.66561 210 ft 96 kts 162°
2026-04-24 15:43 1.64278 103.66861 205 ft 155 kts 160°
2026-04-24 15:44 1.63163 103.67261 581 ft 176 kts 160°
2026-04-24 15:44 1.61983 103.67683 1269 ft 179 kts 158°
2026-04-24 15:44 1.60820 103.68108 2034 ft 177 kts 157°
2026-04-24 15:44 1.59673 103.68530 2759 ft 175 kts 157°
2026-04-24 15:45 1.58547 103.68943 3404 ft 178 kts 158°
2026-04-24 15:45 1.57315 103.69396 3747 ft 199 kts 158°
2026-04-24 15:45 1.55950 103.69949 4069 ft 224 kts 148°
2026-04-24 15:45 1.54834 103.71110 4484 ft 247 kts 116°
2026-04-24 15:46 1.54423 103.72836 5006 ft 266 kts 89°
2026-04-24 15:46 1.54851 103.74649 5826 ft 274 kts 63°
2026-04-24 15:46 1.56082 103.76115 6688 ft 281 kts 36°
2026-04-24 15:46 1.57902 103.76848 7536 ft 288 kts
2026-04-24 15:47 1.59891 103.76618 8395 ft 294 kts 338°
2026-04-24 15:47 1.61554 103.75425 9234 ft 300 kts 309°
2026-04-24 15:47 1.62596 103.73609 10051 ft 304 kts 296°
2026-04-24 15:47 1.63552 103.71654 10469 ft 325 kts 296°
2026-04-24 15:48 1.64563 103.69567 10918 ft 340 kts 296°
2026-04-24 15:48 1.65606 103.67415 11605 ft 347 kts 296°
2026-04-24 15:48 1.66666 103.65234 12347 ft 351 kts 296°
2026-04-24 15:48 1.67746 103.63025 13076 ft 356 kts 296°
2026-04-24 15:49 1.68845 103.60790 13789 ft 360 kts 297°
2026-04-24 15:49 1.69959 103.58534 14426 ft 364 kts 297°
2026-04-24 15:49 1.71088 103.56251 15042 ft 368 kts 297°
2026-04-24 15:49 1.72226 103.53946 15661 ft 372 kts 297°
2026-04-24 15:50 1.73377 103.51613 16266 ft 376 kts 297°
2026-04-24 15:50 1.74544 103.49246 16869 ft 380 kts 297°
2026-04-24 15:50 1.75718 103.46862 17481 ft 384 kts 297°
2026-04-24 15:50 1.76904 103.44451 18084 ft 388 kts 297°
2026-04-24 15:51 1.78103 103.42019 18612 ft 392 kts 297°
2026-04-24 15:51 1.79314 103.39563 19143 ft 395 kts 297°
2026-04-24 15:51 1.80532 103.37090 19670 ft 398 kts 297°
2026-04-24 15:51 1.81758 103.34598 20200 ft 401 kts 297°
2026-04-24 15:52 1.82993 103.32090 20717 ft 404 kts 297°
2026-04-24 15:52 1.84238 103.29564 21237 ft 407 kts 297°
2026-04-24 15:52 1.85491 103.27025 21739 ft 409 kts 297°
2026-04-24 15:52 1.86756 103.24457 22242 ft 412 kts 297°
2026-04-24 15:53 1.88030 103.21874 22728 ft 415 kts 297°
2026-04-24 15:53 1.89314 103.19270 23228 ft 418 kts 297°
2026-04-24 15:53 1.90599 103.16655 23664 ft 421 kts 297°
2026-04-24 15:53 1.91891 103.14025 23837 ft 422 kts 296°
2026-04-24 15:54 1.93155 103.11453 23880 ft 409 kts 296°
2026-04-24 15:54 1.94384 103.08955 23900 ft 395 kts 297°
2026-04-24 15:54 1.95597 103.06496 23897 ft 391 kts 297°
2026-04-24 15:54 1.96801 103.04058 23896 ft 390 kts 297°
2026-04-24 15:55 1.97998 103.01627 23895 ft 390 kts 296°
2026-04-24 15:55 1.99191 102.99197 23893 ft 390 kts 296°
2026-04-24 15:55 2.00386 102.96761 23897 ft 389 kts 296°
2026-04-24 15:55 2.01581 102.94332 23903 ft 389 kts 296°
2026-04-24 15:56 2.02775 102.91905 23905 ft 390 kts 296°
2026-04-24 15:56 2.03972 102.89475 23896 ft 390 kts 297°
2026-04-24 15:56 2.05173 102.87046 23896 ft 389 kts 297°
2026-04-24 15:56 2.06366 102.84617 23897 ft 389 kts 296°
2026-04-24 15:57 2.07557 102.82179 23902 ft 389 kts 296°
2026-04-24 15:57 2.08726 102.79775 23902 ft 389 kts 296°
2026-04-24 15:57 2.09523 102.78131 23895 ft 389 kts 296°
2026-04-24 15:57 2.11090 102.74907 23899 ft 389 kts 296°
2026-04-24 15:58 2.12277 102.72472 23896 ft 389 kts 296°
2026-04-24 15:58 2.13466 102.70041 23909 ft 389 kts 296°
2026-04-24 15:58 2.14654 102.67613 23730 ft 388 kts 296°
2026-04-24 15:58 2.15889 102.65196 23100 ft 390 kts 302°
2026-04-24 15:59 2.17500 102.63038 22614 ft 386 kts 314°
2026-04-24 15:59 2.19391 102.61161 22203 ft 380 kts 317°
2026-04-24 15:59 2.21269 102.59311 21785 ft 377 kts 316°
2026-04-24 15:59 2.23123 102.57470 21371 ft 374 kts 316°
2026-04-24 16:00 2.24951 102.55634 20893 ft 373 kts 314°
2026-04-24 16:00 2.26435 102.53454 19946 ft 388 kts 294°
2026-04-24 16:00 2.27158 102.50858 19487 ft 384 kts 282°
2026-04-24 16:00 2.27695 102.48322 19245 ft 363 kts 283°
2026-04-24 16:01 2.28238 102.45890 18725 ft 355 kts 283°
2026-04-24 16:01 2.28782 102.43502 18125 ft 350 kts 283°
2026-04-24 16:01 2.29324 102.41140 17444 ft 347 kts 283°
2026-04-24 16:01 2.29856 102.38803 16789 ft 343 kts 283°
2026-04-24 16:02 2.30377 102.36494 16165 ft 339 kts 283°
2026-04-24 16:02 2.30889 102.34203 15559 ft 335 kts 283°
2026-04-24 16:02 2.31392 102.31939 14975 ft 332 kts 283°
2026-04-24 16:02 2.31889 102.29700 14397 ft 328 kts 282°
2026-04-24 16:03 2.32380 102.27486 13778 ft 326 kts 282°
2026-04-24 16:03 2.32883 102.25217 12869 ft 340 kts 282°
2026-04-24 16:03 2.33393 102.22913 12112 ft 338 kts 282°
2026-04-24 16:03 2.33900 102.20627 11371 ft 335 kts 282°
2026-04-24 16:04 2.34406 102.18362 10652 ft 332 kts 282°
2026-04-24 16:04 2.34908 102.16123 9947 ft 329 kts 282°
2026-04-24 16:04 2.35400 102.13930 9505 ft 316 kts 282°
2026-04-24 16:04 2.35872 102.11816 8920 ft 308 kts 282°
2026-04-24 16:05 2.36799 102.07658 7344 ft 308 kts 283°
2026-04-24 16:05 2.37262 102.05567 6580 ft 307 kts 283°
2026-04-24 16:06 2.38512 102.01455 5247 ft 305 kts 290°
2026-04-24 16:06 2.39210 101.99497 4735 ft 293 kts 290°
2026-04-24 16:06 2.40551 101.95813 3752 ft 271 kts 290°
2026-04-24 16:07 2.41182 101.94072 3323 ft 261 kts 290°
2026-04-24 16:07 2.41784 101.92400 2965 ft 250 kts 291°
2026-04-24 16:07 2.43355 101.89421 2517 ft 233 kts 313°
2026-04-24 16:08 2.44407 101.88203 2521 ft 231 kts 312°
2026-04-24 16:08 2.46642 101.85992 2511 ft 215 kts 326°
2026-04-24 16:09 2.49034 101.84365 2510 ft 205 kts 328°
2026-04-24 16:09 2.50217 101.83575 2516 ft 204 kts 328°
2026-04-24 16:09 2.51000 101.83050 2517 ft 204 kts 328°
2026-04-24 16:09 2.52572 101.81996 2513 ft 203 kts 328°
2026-04-24 16:10 2.56061 101.79657 2511 ft 202 kts 328°
2026-04-24 16:11 2.58331 101.78135 2524 ft 183 kts 329°
2026-04-24 16:11 2.59373 101.77437 2493 ft 179 kts 329°
2026-04-24 16:11 2.60402 101.76747 2347 ft 177 kts 328°
2026-04-24 16:12 2.62407 101.75403 1934 ft 165 kts 329°
2026-04-24 16:12 2.63321 101.74790 1724 ft 156 kts 329°
2026-04-24 16:12 2.65085 101.73607 1334 ft 151 kts 328°
2026-04-24 16:13 2.65956 101.73024 1142 ft 150 kts 328°
2026-04-24 16:13 2.67675 101.71872 786 ft 148 kts 328°
2026-04-24 16:14 2.69080 101.70930 482 ft 143 kts 327°
2026-04-24 16:14 2.70185 101.70196 248 ft 142 kts 327°
2026-04-24 16:14 2.71515 101.69300 39 ft 124 kts 327°
2026-04-24 16:15 2.71937 101.69018 39 ft 91 kts 326°
2026-04-24 16:15 2.72601 101.68623 38 ft 28 kts 356°
2026-04-24 16:16 2.72884 101.68580 39 ft 15 kts 335°
2026-04-24 16:16 2.72979 101.68522 39 ft 17 kts 326°
2026-04-24 16:17 2.73347 101.68277 38 ft 25 kts 325°
2026-04-24 16:17 2.73597 101.68108 38 ft 13 kts 326°
2026-04-24 16:18 2.73729 101.68193 41 ft 13 kts 57°
2026-04-24 16:18 2.73844 101.68364 42 ft 17 kts 56°
2026-04-24 16:18 2.73897 101.68442 42 ft 13 kts 56°
2026-04-24 16:19 2.73987 101.68561 42 ft 5 kts 17°
2026-04-24 16:19 2.74010 101.68550 40 ft 3 kts 325°
2026-04-24 16:20 2.74043 101.68527 42 ft 2 kts 326°
2026-04-24 16:20 2.74060 101.68515 42 ft 0 kts 326°